Regional Weather Roundup
Issued by NWS Newport/Morehead, NC

Current Version | Previous Version | Text Only | Print | Product List | Glossary Off
Versions: 1 2 3 4 5 6 7 8 9 10 11 12 13 14 15 16 17 18 19 20 21 22 23 24 25 26 27 28 29 30 31 32 33 34 35 36 37 38 39 40 41 42 43 44 45 46 47 48 49 50
000 ASUS42 KMHX 210225 RWRMHX WEATHER ROUNDUP FOR EASTERN NORTH CAROLINA NATIONAL WEATHER SERVICE NEWPORT/MOREHEAD CITY NC 1000 PM EDT FRI OCT 20 2017 NOTE: "FAIR" INDICATES FEW OR NO CLOUDS BELOW 12,000 FEET WITH NO SIGNIFICANT WEATHER AND/OR OBSTRUCTIONS TO VISIBILITY NCZ015>017-031-032-045>047-102-103-210300- NORTH COAST CITY SKY/WX TMP DP RH WIND PRES REMARKS EDENTON CLEAR 59 56 91 CALM 30.25R ELIZABETH CITY CLEAR 56 56 100 SW3 30.24R KITTY HAWK CLEAR 61 58 89 CALM 30.23R MANTEO CLEAR N/A N/A N/A CALM 30.24R $$ NCZ045>047-081-094-103-104-210300- CENTRAL COAST CITY SKY/WX TMP DP RH WIND PRES REMARKS FRISCO CLEAR 59 57 93 CALM 30.23R $$ NCZ095-097-098-100-101-210300- SOUTHERN COAST CITY SKY/WX TMP DP RH WIND PRES REMARKS BEAUFORT CLEAR 59 55 87 CALM 30.23R CEDAR ISLAND NOT AVBL JACKSONVILLE CLEAR 58 57 97 CALM 30.22R PINEY ISLAND N/A N/A N/A N/A E3 30.23R WILMINGTON CLEAR 58 55 90 CALM 30.22R $$ NCZ011>013-027>030-043-044-078>080-089-090>093-098-210300- COASTAL PLAIN CITY SKY/WX TMP DP RH WIND PRES REMARKS AHOSKIE CLEAR 54 54 100 CALM 30.24S CLINTON CLEAR 58 55 89 CALM 30.22S ELIZABETHTOWN NOT AVBL GOLDSBORO CLEAR 58 53 84 CALM 30.21R HAZE GREENVILLE CLEAR 55 55 100 CALM 30.24R HAVELOCK CLEAR 60 58 92 CALM 30.23 KENANSVILLE CLEAR 54 50 87 CALM 30.24R KINSTON NOT AVBL NEW BERN CLEAR 59 57 93 CALM 30.23S RICHLANDS CLEAR 57 55 93 CALM 30.23R ROCKY MOUNT CLEAR 55 55 100 CALM 30.23R WASHINGTON CLEAR 57 55 91 CALM 30.24R WHITEVILLE CLEAR 58 56 92 CALM 30.21S $$ AMZ130-135-150-152-154-156-158-170-250-252-270-ANZ085-086-088-633-658-670-210300- MARINE OBSERVATIONS STATION/POSITION TIME TEMP WIND PRES WAVE SWELL AIR SEA DIR/SP/G HT/PER HT/PER (UTC) (F) (DEG/KT/KT) (MB) (FT/S) (FT/S) CHESAPEAKE LIGHT NOT AVBL 64 E VA BEACH 0150 67 67 320/ 2/ 2 1023.9 3/ 8 2/ 8 DUCK 0200 66 70 280/ 4/ 4 1023.6 2 E DUCK 0200 70 N/A 2/ 7 OREGON INLET 0200 63 70 330/ 2/ 3 1023.6 13E OREGON INLT 0148 71 N/A 2/ 8 2/ 8 HATTERAS CG 0200 68 71 350/ 2/ 2 1023.6 DIAMOND BUOY 0150 73 81 330/ 4/ 6 1023.2 3/ 8 3/ 8 CAPE LOOKOUT 0200 71 150/ 3/ 3 1023.3 BEAUFORT LAB 0200 68 72 90/ 1/ 2 1023.7 30 SE NEW RVR IN 0208 73 120/ 6/ 8 1023.1 30 SE NEW RVR IN NOT AVBL 27 SE WRIGHTSVLE 0208 73 76 130/ 4/ 6 1023.3 5 SE WRIGHTSVLE 0208 72 74 220/ 8/ 10 1023.1 225 S CAPE HAT 0150 76 80 70/ 10/ 14 1021.9 4/ 9 3/ 9 41 SE CHARLESTON 0210 74 80 80/ 6/ 8 1022.4 $$

USA.gov is the U.S. government's official web portal to all federal, state and local government web resources and services.